NOAA 16 DEB, 41267

Orbit data source: Space-Track

NOAA 16 DEB, 41267 is space debris in SSO originally from a launch on Thu, 21 Sep 2000 UTC launched from the Air Force Western Test Range (AFWTR). Debris objects in space refer to the collection of defunct objects orbiting the Earth. Examples of debris include non-operational satellites, rocket bodies, and fragments generated from explosions, collisions, or faulty payload assembly.

Loading next visibility...
Identifier
41267, 2000-055FT
Orbit
SSO
Country
Flag of USUS
Related business
Manufacturer
Unknown
Mission
Spacecraft
Bus & Motor
Unknown
Mass
Unknown
Launch date (UTC)
2000-09-21 (25 years ago)
Launch vehicle
Unknown
Launch site
Air Force Western Test Range (AFWTR)
Object type
Payload
Rocket body
Debris
Shape & HBR
Unknown shape, 0.1 m
Radar Cross Section
Small (<0.1 m²)

Expand to show TLE details & history
Last TLE update: 22 hours ago

TLE from 22 hours ago
0 NOAA 16 DEB
1 41267U 00055FT  25292.91998117  .00061118  00000-0  80465-2 0  9997
2 41267  98.8073 101.2194 0026008 325.4420  34.5097 14.79612317515203
Epoch: 2025-10-19T22:04Z
TLE epoch observation values (Epoch: 2025-10-19T22:04:46.373Z)
Latitude
-0.00004°
Longitude
101.39646°
Altitude
618.532 km
Speed
7.558 km/s
True Right ascension
06h 44m 52s
True Declination
0° 00' 00"
Sunlit
Object was in daylight at epoch
Visualization orbit readout
Latitude
Unknown
Longitude
Unknown
Altitude
Unknown
Speed
Unknown
Apparent Right ascension
Unknown
Apparent Declination
Unknown
Sunlit
N/A
Visualization observer readout
Local Sidereal Time
15:02:34
Azimuth
Unknown
Elevation
Unknown
Doppler factor
Unknown
Orbital elements
Apogee altitude
645.853 km
Perigee altitude
609.412 km
Semi-major axis
7,005.769 km
Eccentricity
0.0026
Inclination
98.8073°
RAAN
101.2194°
Arg. of periapsis
325.442°
True anomaly
34.679°
Mean anomaly
34.5097°
Eccentric anomaly
34.5943°
Mean motion
3.70134 °/min
Orbital period
97.26 mins
BSTAR
0.0080465
Loading maneuver chart data...
Computing Atmospheric mass density...

Documentation

Showing up to 5 results
|